UA1ZPU-15 Weather Reports


time (UTC)temp
C
wind
direction
speed
KPH
gust
KPH
rain 1hr
cm
rain 24hr
cm
rain mn
cm
humidity
%
barometer
mb
20260507122625 6 0.0 0.0 0.00 0.00 0.00 20 979.8
20260507121623 6 0.0 0.0 0.00 0.00 0.00 26 979.9
20260507120620 5 0.0 0.0 0.00 0.00 0.00 51 980.1
20260507115615 5 0.0 0.0 0.00 0.00 0.00 58 980.0
20260507114613 3 0.0 0.0 0.00 0.00 0.00 98 980.0
20260507113610 2 0.0 0.0 0.00 0.00 0.00 99 980.1
20260507112607 1 0.0 0.0 0.00 0.00 0.00 99 980.2
20260507111604 1 0.0 0.0 0.00 0.00 0.00 92 980.3
20260507110600 5 0.0 0.0 0.00 0.00 0.00 27 980.1
20260507105558 5 0.0 0.0 0.00 0.00 0.00 21 979.7
20260507104710 5 0.0 0.0 0.00 0.00 0.00 24 979.7
20260507104556 5 0.0 0.0 0.00 0.00 0.00 24 979.7
20260507082711 5 0.0 0.0 0.00 0.00 0.00 21 979.0
20260507081708 4 0.0 0.0 0.00 0.00 0.00 24 978.9
20260507080706 5 0.0 0.0 0.00 0.00 0.00 22 978.9
20260507075703 5 0.0 0.0 0.00 0.00 0.00 15 978.6
20260507074701 5 0.0 0.0 0.00 0.00 0.00 17 978.3
20260507073659 5 0.0 0.0 0.00 0.00 0.00 17 978.5
20260507072655 5 0.0 0.0 0.00 0.00 0.00 18 978.3
20260507071652 5 0.0 0.0 0.00 0.00 0.00 15 978.3
20260507070651 5 0.0 0.0 0.00 0.00 0.00 15 978.3
20260507065647 5 0.0 0.0 0.00 0.00 0.00 18 978.2
20260507064644 5 0.0 0.0 0.00 0.00 0.00 19 978.3
20260507063641 4 0.0 0.0 0.00 0.00 0.00 19 978.3
20260507062638 5 0.0 0.0 0.00 0.00 0.00 13 978.2
20260507061635 5 0.0 0.0 0.00 0.00 0.00 13 978.2
20260507060632 5 0.0 0.0 0.00 0.00 0.00 13 978.0
20260507055628 5 0.0 0.0 0.00 0.00 0.00 12 977.9
20260507054626 4 0.0 0.0 0.00 0.00 0.00 12 977.9
20260507053624 4 0.0 0.0 0.00 0.00 0.00 12 977.9
20260507052621 4 0.0 0.0 0.00 0.00 0.00 11 977.7
20260507051617 5 0.0 0.0 0.00 0.00 0.00 977.6
20260507050614 4 0.0 0.0 0.00 0.00 0.00 13 977.7
20260507045613 4 0.0 0.0 0.00 0.00 0.00 14 977.6
20260507044726 3 0.0 0.0 0.00 0.00 0.00 15 977.4
20260507044611 3 0.0 0.0 0.00 0.00 0.00 15 977.4
20260506192211 -1 0.0 0.0 0.00 0.00 0.00 51 974.9
20260506191209 -1 0.0 0.0 0.00 0.00 0.00 47 974.8
20260506190206 -1 0.0 0.0 0.00 0.00 0.00 41 974.7
20260506185203 -1 0.0 0.0 0.00 0.00 0.00 37 974.7
20260506184201 0 0.0 0.0 0.00 0.00 0.00 34 974.6
20260506183200 0 0.0 0.0 0.00 0.00 0.00 26 974.6
20260506182156 1 0.0 0.0 0.00 0.00 0.00 20 974.5
20260506181308 1 0.0 0.0 0.00 0.00 0.00 20 974.5
20260506181153 1 0.0 0.0 0.00 0.00 0.00 19 974.5
20260506180700 1 0.0 0.0 0.00 0.00 0.00 19 974.5
20260506175656 1 0.0 0.0 0.00 0.00 0.00 18 974.3
20260506174653 1 0.0 0.0 0.00 0.00 0.00 19 974.3
20260506173806 1 0.0 0.0 0.00 0.00 0.00 20 974.3
20260506173652 1 0.0 0.0 0.00 0.00 0.00 20 974.2
20260506125935 2 0.0 0.0 0.00 0.00 0.00 28 971.9
20260506124932 2 0.0 0.0 0.00 0.00 0.00 29 971.9
20260506123930 2 0.0 0.0 0.00 0.00 0.00 25 971.7